This is the latest recevied weather packets stored in our database for station/object YB2YEN-13. If no packets are shown the sender has not sent any weather packets the latest 1 day(s).
| Time | Temp. | Humidity | Pressure | Rain* | Wind** | Luminosity | Snow |
|---|---|---|---|---|---|---|---|
| 1778045545 | 32.22° C | 78% | 976 hPa | - | 0 m/s | 0 W/m² | - |
| 1778045223 | 32.78° C | 76% | 976 hPa | - | 0 m/s | 0 W/m² | - |
| 1778044901 | 33.33° C | 70% | 976 hPa | - | 0 m/s | 0 W/m² | - |
| 1778044579 | 32.78° C | 76% | 977 hPa | - | 0 m/s | 0 W/m² | - |
| 1778044258 | 33.89° C | 76% | 977 hPa | - | 0 m/s | 0 W/m² | - |
| 1778043935 | 32.78° C | 71% | 977 hPa | - | 0 m/s | 0 W/m² | - |
| 1778043613 | 32.78° C | 73% | 977 hPa | - | 0 m/s | 0 W/m² | - |
| 1778043291 | 33.33° C | 75% | 977 hPa | - | 0 m/s | 0 W/m² | - |
| 1778042969 | 32.78° C | 77% | 977 hPa | - | 0 m/s | 0 W/m² | - |
| 1778042647 | 32.78° C | 83% | 977 hPa | - | 0 m/s | 0 W/m² | - |
| 1778042325 | 32.22° C | 85% | 977 hPa | - | 0 m/s | 0 W/m² | - |
| 1778042003 | 32.78° C | 81% | 977 hPa | - | 0 m/s | 0 W/m² | - |
| 1778041681 | 32.78° C | 72% | 977 hPa | - | 0 m/s | 0 W/m² | - |
| 1778041359 | 32.78° C | 79% | 977 hPa | - | 0 m/s | 0 W/m² | - |
| 1778041037 | 33.33° C | 74% | 977 hPa | - | 0 m/s | 0 W/m² | - |
| 1778040715 | 32.78° C | 79% | 978 hPa | - | 0 m/s | 0 W/m² | - |
| 1778040393 | 33.33° C | 74% | 978 hPa | - | 0 m/s | 0 W/m² | - |
| 1778040071 | 33.33° C | 72% | 978 hPa | - | 0 m/s | 0 W/m² | - |
| 1778039750 | 33.89° C | 76% | 978 hPa | - | 0 m/s | 0 W/m² | - |
| 1778039428 | 32.78° C | 82% | 978 hPa | - | 0 m/s | 0 W/m² | - |
| 1778039105 | 32.78° C | 82% | 978 hPa | - | 0 m/s | 0 W/m² | - |
| 1778038783 | 33.33° C | 80% | 978 hPa | - | 0 m/s | 0 W/m² | - |
| 1778038461 | 33.33° C | 74% | 978 hPa | - | 0 m/s | 0 W/m² | - |
| 1778038139 | 33.89° C | 86% | 978 hPa | - | 0 m/s | 0 W/m² | - |
| 1778037817 | 32.78° C | 86% | 978 hPa | - | 0 m/s | 0 W/m² | - |
* Rain since midnight (hover to see other rain measurements)
** Current wind speed in m/s (hover to see current wind gust speed)